[[{"header":{"parameterUnit":"m.s-1","parameterCategory":2,"la1":30.2991,"la2":30.254,"lo1":-89.0895,"lo2":-89.0444,"dy":0.0017,"dx":0.0017,"nx":28,"ny":28,"refTime":"2025-07-23T03:00:00:Z","depth":"0","parameterNumber":2,"parameterNumberName":"U-component_of_CURRENTS"},"data":[0,0,0,0,0,0,0,0,0,0,0,0,0,0,0,0,0,0,0,0,0,0,0,0,0,0,0,0,0,0,0,0,0,0,0,0,0,0,0,0,0,0,0,0,0,0,0,0,0,0,0,0,0,0,0,0,0,0,0.1488,0.1488,0,0.1474,0.1474,0.1474,0.1459,0.1458,0.1458,0.1458,0.1449,0.1449,0.1449,0,0,0,0,0,0,0,0,0,0,0,0,0,0.1524,0.1523,0.1488,0.1488,0.1488,0.1474,0.1474,0.1473,0.1459,0.1458,0.1458,0.1458,0.1449,0.1449,0.1449,0,0,0,0,0,0,0,0,0,0,0,0,0,0.1508,0.1523,0.1488,0.1479,0.1479,0.1474,0.1474,0.1473,0.1459,0.1458,0.1458,0.1458,0.1449,0.1449,0.1449,0.1451,0,0,0.1448,0.1448,0,0,0,0,0,0,0,0,0.1509,0.1506,0.1481,0.148,0.1479,0.1469,0.1483,0.1466,0.1459,0.1465,0.1458,0.1458,0.1457,0.1456,0.1452,0.145,0.145,0.1448,0.1448,0.1448,0.1448,0,0,0,0,0,0,0,0.151,0.1507,0.1481,0.1481,0.148,0.1484,0.1481,0.148,0.1461,0.1465,0.1464,0.1464,0.1456,0.1452,0.1452,0.145,0.1448,0.1448,0.1448,0.1448,0.1461,0.1462,0,0,0,0,0,0,0.1512,0.1508,0.1482,0.1481,0.1495,0.1484,0.148,0.1471,0.1461,0.146,0.1464,0.1463,0.1453,0.1452,0.1451,0.1467,0.1448,0.1448,0.1447,0.1461,0.1462,0.1462,0,0,0,0,0,0,0.1513,0.151,0.1482,0.1496,0.1493,0.1483,0.1473,0.1471,0.1468,0.1461,0.1459,0.1463,0.1453,0.1452,0.1452,0.1466,0.1447,0.1447,0.146,0.1461,0.1462,0.149,0,0,0,0,0,0,0.1514,0.151,0.1507,0.1495,0.1492,0.1482,0.1473,0.1471,0.1469,0.1468,0.146,0.1459,0.1452,0.1452,0.1451,0.1466,0.1447,0.146,0.1461,0.1462,0.1488,0.1491,0.1494,0,0,0,0,0,0.1515,0.1511,0.1506,0.1504,0.1486,0.1483,0.1481,0.1473,0.1469,0.147,0.1464,0.1459,0.1458,0.1452,0.1451,0.1466,0.1459,0.146,0.1462,0.1487,0.1491,0.1494,0,0,0,0,0,0,0.1528,0.1509,0.1503,0.1494,0.1491,0.148,0.1481,0.1476,0.1471,0.147,0.1462,0.146,0.1471,0.1461,0.1455,0.1473,0.1459,0.146,0.1479,0.1483,0.1485,0.1539,0.1447,0,0,0,0,0,0.1529,0.1518,0.1507,0.1501,0.1499,0.149,0.1489,0.1484,0.1478,0.1475,0.147,0.1467,0.1475,0.1472,0.1475,0.1478,0.153,0.1488,0.1491,0.1494,0.1537,0.1651,0.167,0.1466,0.1466,0.1466,0,0,0.1534,0.1522,0.1516,0.1503,0.1498,0.1496,0.1488,0.1487,0.149,0.1476,0.1478,0.148,0.1479,0.1488,0.1492,0.1481,0.1566,0.1495,0.1497,0.154,0.1655,0.1676,0.1694,0.1467,0.1466,0.1466,0,0,0.1537,0.1526,0.1518,0.1514,0.1508,0.1503,0.1504,0.1495,0.1498,0.1497,0.1498,0.1523,0.1501,0.1528,0.1533,0.1557,0.1584,0.1534,0.1588,0.1697,0.1717,0.1734,0.1779,0.18,0.153,0.153,0.153,0,0.1546,0.153,0.1519,0.1513,0.1514,0.1507,0.1508,0.1509,0.1504,0.1528,0.15,0.1545,0.1535,0.1593,0.1593,0.157,0.1613,0.1571,0.1706,0.1725,0.1743,0.1784,0.1808,0.1531,0.1531,0.1531,0.1531,0,0.1541,0.1532,0.153,0.1518,0.1521,0.152,0.1522,0.1533,0.1531,0.1547,0.1601,0.1605,0.1647,0.1632,0.1613,0.1725,0.1705,0.1703,0.1705,0.1766,0.1804,0.1828,0.1533,0.1533,0.1532,0.1532,0,0,0.155,0.153,0.153,0.1531,0.1523,0.1529,0.1545,0.1576,0.162,0.1624,0.17,0.1711,0.1744,0.1757,0.1752,0.1831,0.1959,0.1816,0.1821,0.1873,0.2166,0.2022,0.2034,0.1984,0.199,0.1994,0.2125,0,0.1551,0.1541,0.1535,0.154,0.1538,0.155,0.1575,0.1609,0.1642,0.1713,0.1761,0.1821,0.1781,0.1813,0.1892,0.196,0.2032,0.1922,0.2089,0.2094,0.1972,0.2062,0.1892,0.1985,0.2149,0.2153,0.2156,0,0.1544,0.1541,0.1539,0.1561,0.1566,0.1575,0.1642,0.1666,0.1765,0.1803,0.1892,0.1932,0.205,0.2006,0.2184,0.2115,0.2154,0.2192,0.2198,0.2087,0.1998,0.196,0.2024,0.1909,0.2193,0.219,0.2188,0,0.1547,0.1549,0.1549,0.155,0.1572,0.1596,0.162,0.1699,0.1755,0.1883,0.1956,0.2084,0.2166,0.2269,0.2317,0.2279,0.2503,0.2461,0.2366,0.2354,0.2258,0.2227,0.2253,0.2614,0.2613,0.2613,0.2613,0,0.1543,0.1547,0.1552,0.1552,0.1596,0.1607,0.1681,0.1732,0.1838,0.1941,0.2014,0.2125,0.2247,0.2361,0.2395,0.245,0.2572,0.2416,0.2406,0.225,0.2219,0.2151,0.2096,0.2618,0.2617,0.2616,0.2615,0,0.1539,0.1532,0.1548,0.1575,0.1591,0.1626,0.1704,0.1783,0.186,0.2005,0.2056,0.2207,0.2341,0.2416,0.258,0.2535,0.2497,0.2585,0.235,0.2309,0.2064,0.2015,0.2007,0.196,0.2519,0.2516,0.2514,0,0.1532,0.1532,0.1567,0.1609,0.1623,0.1673,0.1737,0.1797,0.1883,0.2051,0.214,0.2286,0.2381,0.2517,0.2477,0.2502,0.2433,0.2343,0.2242,0.2059,0.2002,0.1919,0.1876,0.2115,0.211,0.2106,0.2102,0,0.1548,0.1558,0.1587,0.166,0.1721,0.1778,0.1855,0.19,0.1999,0.2088,0.2216,0.2291,0.2368,0.2309,0.2294,0.2281,0.2156,0.2253,0.2174,0.1786,0.16,0.1543,0.1977,0.2065,0.2069,0.2072,0.2074,0.2075,0.1585,0.1622,0.1675,0.1747,0.1814,0.1878,0.1892,0.1962,0.2032,0.2104,0.2207,0.2219,0.215,0.2084,0.2054,0.1811,0.1885,0.1705,0.1692,0.1649,0.1509,0.1812,0.181,0.1812,0.1814,0.1816,0.1817,0,0.1657,0.1706,0.1775,0.1849,0.1913,0.1929,0.1984,0.1965,0.1985,0.202,0.2057,0.1915,0.1783,0.1685,0.1431,0.1282,0.1234,0.121,0.1088,0.1104,0.1474,0.1356,0.1121,0.1121,0.1121,0.1121,0.1121,0.1121,0.1716,0.1801,0.1831,0.1935,0.1968,0.1982,0.198,0.1919,0.1884,0.1767,0.1642,0.1617,0.1456,0.115,0.0897,0.0855,0.078,0.0654,0.0742,0.0989,0.1035,0.1079,0.0957,0.0642,0.0641,0.0304,0.0301,0.0299]},{"header":{"parameterUnit":"m.s-1","parameterCategory":2,"la1":30.2991,"la2":30.254,"lo1":-89.0895,"lo2":-89.0444,"dy":0.0017,"dx":0.0017,"nx":28,"ny":28,"refTime":"2025-07-23T03:00:00:Z","depth":"0","parameterNumber":3,"parameterNumberName":"V-component_of_CURRENTS"},"data":[0,0,0,0,0,0,0,0,0,0,0,0,0,0,0,0,0,0,0,0,0,0,0,0,0,0,0,0,0,0,0,0,0,0,0,0,0,0,0,0,0,0,0,0,0,0,0,0,0,0,0,0,0,0,0,0,0,0,0.019,0.019,0,0.0199,0.0199,0.0199,0.02,0.02,0.02,0.02,0.0206,0.0206,0.0206,0,0,0,0,0,0,0,0,0,0,0,0,0,0.0187,0.0187,0.019,0.019,0.0191,0.0199,0.0199,0.0199,0.02,0.02,0.02,0.02,0.0206,0.0206,0.0206,0,0,0,0,0,0,0,0,0,0,0,0,0,0.0192,0.0187,0.019,0.0192,0.0192,0.0199,0.0199,0.0199,0.02,0.02,0.02,0.02,0.0206,0.0206,0.0207,0.0212,0,0,0.0208,0.0208,0,0,0,0,0,0,0,0,0.0191,0.0192,0.0192,0.0192,0.0192,0.0198,0.02,0.0203,0.02,0.0198,0.02,0.02,0.0203,0.0204,0.0206,0.0212,0.0213,0.0208,0.0208,0.0208,0.0208,0,0,0,0,0,0,0,0.0191,0.0192,0.0194,0.0192,0.0192,0.0196,0.0197,0.0201,0.0201,0.0198,0.0198,0.0198,0.0203,0.0206,0.0206,0.0213,0.0208,0.0208,0.0208,0.0208,0.0228,0.0229,0,0,0,0,0,0,0.0189,0.0191,0.0194,0.0194,0.0191,0.0196,0.0197,0.0197,0.0201,0.0202,0.0198,0.0198,0.0205,0.0206,0.0206,0.0231,0.0208,0.0208,0.0209,0.0228,0.0228,0.0229,0,0,0,0,0,0,0.0189,0.0189,0.0193,0.0193,0.0194,0.0196,0.0196,0.0197,0.0199,0.0202,0.0202,0.02,0.0205,0.0206,0.0214,0.0231,0.0209,0.0209,0.0228,0.0228,0.0229,0.0269,0,0,0,0,0,0,0.0189,0.0189,0.0189,0.0193,0.0193,0.02,0.0196,0.0197,0.02,0.02,0.0203,0.0204,0.0205,0.0213,0.0214,0.0231,0.0209,0.0227,0.0228,0.0228,0.0267,0.0271,0.0274,0,0,0,0,0,0.0189,0.0191,0.0189,0.0189,0.0193,0.02,0.0201,0.0203,0.02,0.0204,0.0207,0.0204,0.0217,0.0214,0.0215,0.0232,0.0227,0.0228,0.0228,0.0266,0.027,0.0273,0,0,0,0,0,0,0.0189,0.0191,0.0189,0.0191,0.0195,0.02,0.0203,0.0203,0.0209,0.0209,0.0209,0.021,0.0223,0.0218,0.0214,0.0237,0.0221,0.0222,0.0249,0.0253,0.0256,0.0298,0.021,0,0,0,0,0,0.0189,0.0191,0.0193,0.0195,0.0197,0.0199,0.0202,0.0204,0.0209,0.0211,0.0214,0.0217,0.0227,0.0232,0.0235,0.0249,0.0267,0.0259,0.0262,0.0265,0.0299,0.0354,0.0367,0.0231,0.0231,0.0231,0,0,0.0189,0.0191,0.0191,0.0195,0.0198,0.021,0.0201,0.0207,0.0222,0.0211,0.0229,0.0228,0.0231,0.0249,0.0254,0.0248,0.0302,0.0266,0.0268,0.0302,0.0357,0.037,0.0382,0.0231,0.0231,0.0231,0,0,0.0195,0.0192,0.0198,0.0204,0.021,0.0215,0.0217,0.0223,0.0231,0.0243,0.0244,0.0262,0.0259,0.0283,0.0291,0.0315,0.0316,0.0298,0.0354,0.0407,0.042,0.0431,0.0429,0.044,0.0302,0.0302,0.0302,0,0.0196,0.0206,0.0202,0.0212,0.0225,0.0219,0.0238,0.0244,0.0253,0.0282,0.0252,0.03,0.0287,0.0349,0.0347,0.0328,0.0337,0.0339,0.0415,0.0427,0.0438,0.0433,0.0445,0.0304,0.0304,0.0304,0.0303,0,0.0211,0.022,0.0225,0.024,0.0252,0.0266,0.0278,0.0296,0.0299,0.0318,0.037,0.0365,0.0408,0.0389,0.0371,0.0446,0.0417,0.0411,0.0412,0.0455,0.0445,0.0457,0.0307,0.0306,0.0306,0.0305,0,0,0.0213,0.0233,0.0235,0.0261,0.0273,0.0294,0.0322,0.0369,0.0424,0.0421,0.0505,0.0498,0.0515,0.0526,0.0514,0.0546,0.0596,0.051,0.0512,0.0519,0.0678,0.0622,0.0629,0.0606,0.061,0.0612,0.0625,0,0.023,0.0263,0.0268,0.0315,0.0339,0.0357,0.04,0.0442,0.0474,0.055,0.057,0.063,0.0562,0.0595,0.0618,0.0624,0.0636,0.0591,0.0627,0.0628,0.0584,0.0645,0.0667,0.0679,0.0636,0.0638,0.0639,0,0.0245,0.0272,0.0315,0.0384,0.04,0.0429,0.0526,0.0563,0.0655,0.0689,0.0755,0.0775,0.0837,0.0767,0.0806,0.0781,0.0735,0.0715,0.0715,0.0671,0.0597,0.0637,0.0702,0.0723,0.0657,0.0656,0.0655,0,0.0266,0.0312,0.0356,0.0372,0.0438,0.0482,0.0527,0.0612,0.0685,0.0795,0.0876,0.0931,0.0992,0.0969,0.0904,0.0872,0.0931,0.0884,0.0783,0.0775,0.081,0.0801,0.0921,0.091,0.091,0.091,0.091,0,0.0289,0.0329,0.0373,0.04,0.0492,0.0521,0.0635,0.0693,0.0809,0.0934,0.096,0.1073,0.1051,0.1072,0.0979,0.0924,0.099,0.0821,0.08,0.0814,0.0806,0.0836,0.0814,0.0911,0.0911,0.0911,0.091,0,0.031,0.0328,0.0396,0.047,0.0501,0.0572,0.0699,0.0795,0.0886,0.1057,0.1106,0.121,0.1239,0.1172,0.1144,0.1035,0.0967,0.0919,0.0904,0.0881,0.0793,0.077,0.0826,0.0833,0.0834,0.0833,0.0833,0,0.0326,0.0355,0.0446,0.0505,0.0542,0.0642,0.0729,0.0828,0.0935,0.1144,0.1243,0.1327,0.1398,0.1319,0.1159,0.1007,0.0962,0.0899,0.0845,0.0826,0.0786,0.0755,0.0755,0.0884,0.0884,0.0883,0.0883,0,0.0372,0.0399,0.0461,0.0565,0.0656,0.0767,0.0889,0.0981,0.1127,0.1269,0.1448,0.1521,0.1471,0.1372,0.1157,0.1033,0.0922,0.0886,0.0915,0.0888,0.0822,0.0805,0.0792,0.0881,0.0881,0.0881,0.0882,0.0882,0.0417,0.0471,0.0544,0.0648,0.0751,0.0877,0.0972,0.1109,0.1275,0.1481,0.1553,0.1659,0.1547,0.1277,0.1141,0.0924,0.0892,0.0855,0.0839,0.0816,0.0814,0.0759,0.0791,0.0791,0.079,0.079,0.079,0,0.0476,0.0533,0.0628,0.075,0.0858,0.0903,0.1076,0.1173,0.1352,0.1519,0.1653,0.165,0.151,0.1324,0.1045,0.0926,0.0876,0.0867,0.0881,0.089,0.0907,0.0903,0.0903,0.0903,0.0903,0.0903,0.0903,0.0903,0.0517,0.0602,0.0644,0.0811,0.0899,0.104,0.1133,0.1275,0.1399,0.1564,0.1617,0.1665,0.1586,0.1234,0.1038,0.0969,0.0948,0.0881,0.0873,0.0932,0.0932,0.0932,0.0929,0.0935,0.0935,0.0893,0.0893,0.0893]}],[{"header":{"parameterUnit":"m.s-1","parameterCategory":2,"la1":30.2991,"la2":30.254,"lo1":-89.0895,"lo2":-89.0444,"dy":0.0017,"dx":0.0017,"nx":28,"ny":28,"refTime":"2025-07-23T03:00:00:Z","depth":"2","parameterNumber":2,"parameterNumberName":"U-component_of_CURRENTS"},"data":[0,0,0,0,0,0,0,0,0,0,0,0,0,0,0,0,0,0,0,0,0,0,0,0,0,0,0,0,0,0,0,0,0,0,0,0,0,0,0,0,0,0,0,0,0,0,0,0,0,0,0,0,0,0,0,0,0,0,0.148,0.148,0,0.1469,0.1469,0.1469,0.1457,0.1457,0.1457,0.1457,0.1451,0.1451,0.1451,0,0,0,0,0,0,0,0,0,0,0,0,0,0.1511,0.1511,0.148,0.148,0.148,0.1469,0.1469,0.1469,0.1457,0.1457,0.1457,0.1457,0.1451,0.1451,0.1451,0,0,0,0,0,0,0,0,0,0,0,0,0,0.1498,0.1511,0.148,0.1474,0.1473,0.1469,0.1469,0.1468,0.1457,0.1457,0.1457,0.1457,0.1451,0.1451,0.1451,0.1452,0,0,0.1451,0.1451,0,0,0,0,0,0,0,0,0.1499,0.1497,0.1475,0.1474,0.1474,0.1465,0.1478,0.1464,0.1457,0.1462,0.1457,0.1457,0.1457,0.1457,0.1453,0.1452,0.1452,0.1451,0.1451,0.1451,0.145,0,0,0,0,0,0,0,0.1499,0.1497,0.1475,0.1475,0.1474,0.1478,0.1476,0.1475,0.146,0.1462,0.1461,0.1461,0.1457,0.1453,0.1453,0.1452,0.1451,0.1451,0.145,0.145,0.1465,0.1465,0,0,0,0,0,0,0.1502,0.1498,0.1475,0.1475,0.1487,0.1478,0.1475,0.1467,0.1459,0.1458,0.1461,0.1461,0.1453,0.1453,0.1453,0.147,0.1451,0.145,0.145,0.1464,0.1465,0.1466,0,0,0,0,0,0,0.1502,0.15,0.1476,0.1487,0.1485,0.1477,0.1468,0.1467,0.1466,0.1459,0.1458,0.1462,0.1453,0.1453,0.1454,0.147,0.145,0.145,0.1464,0.1465,0.1465,0.1495,0,0,0,0,0,0,0.1503,0.15,0.1498,0.1487,0.1484,0.1476,0.1469,0.1467,0.1466,0.1465,0.146,0.1459,0.1453,0.1454,0.1454,0.1469,0.145,0.1463,0.1464,0.1465,0.1494,0.1497,0.15,0,0,0,0,0,0.1504,0.1501,0.1497,0.1495,0.148,0.1477,0.1476,0.147,0.1467,0.1468,0.1463,0.1459,0.146,0.1454,0.1454,0.1469,0.1463,0.1464,0.1465,0.1493,0.1496,0.15,0,0,0,0,0,0,0.1517,0.15,0.1495,0.1488,0.1484,0.1475,0.1476,0.1472,0.1469,0.1469,0.1462,0.1461,0.1472,0.1463,0.1458,0.1476,0.1462,0.1463,0.1483,0.1487,0.149,0.1543,0.145,0,0,0,0,0,0.1518,0.1509,0.1499,0.1494,0.1493,0.1485,0.1484,0.148,0.1476,0.1474,0.147,0.1468,0.1476,0.1474,0.1478,0.1482,0.1527,0.1492,0.1495,0.1498,0.1541,0.1642,0.1659,0.1469,0.1469,0.1469,0,0,0.1523,0.1513,0.1508,0.1497,0.1493,0.149,0.1484,0.1483,0.1487,0.1474,0.1478,0.1481,0.1481,0.1491,0.1494,0.1484,0.1564,0.1499,0.1502,0.1544,0.1645,0.1664,0.1681,0.147,0.1469,0.1469,0,0,0.1527,0.1518,0.1511,0.1508,0.1503,0.1499,0.15,0.1493,0.1496,0.1496,0.1498,0.1524,0.1503,0.1531,0.1536,0.156,0.1582,0.1538,0.1593,0.1689,0.1707,0.1723,0.176,0.178,0.1534,0.1534,0.1534,0,0.1537,0.1522,0.1512,0.1507,0.1509,0.1503,0.1504,0.1506,0.1502,0.1526,0.15,0.1545,0.1537,0.1594,0.1596,0.1573,0.1609,0.1576,0.1697,0.1715,0.1731,0.1766,0.1787,0.1536,0.1535,0.1535,0.1535,0,0.1532,0.1525,0.1524,0.1513,0.1516,0.1516,0.1518,0.153,0.153,0.1546,0.16,0.1605,0.1648,0.1633,0.1618,0.1722,0.1701,0.1695,0.1696,0.1753,0.1784,0.1806,0.1538,0.1537,0.1537,0.1536,0,0,0.1542,0.1524,0.1524,0.1526,0.152,0.1525,0.1542,0.1573,0.1617,0.1622,0.1698,0.1711,0.1745,0.1757,0.1754,0.1825,0.194,0.1806,0.1811,0.1857,0.212,0.1976,0.1986,0.1958,0.1963,0.1967,0.2078,0,0.1544,0.1536,0.1529,0.1536,0.1535,0.1547,0.1572,0.1607,0.1639,0.171,0.1758,0.1819,0.178,0.1814,0.1884,0.1937,0.2007,0.1909,0.2048,0.2052,0.1931,0.2011,0.1786,0.1857,0.21,0.2104,0.2106,0,0.1538,0.1536,0.1536,0.1558,0.1564,0.1574,0.164,0.1664,0.1762,0.1799,0.1886,0.1927,0.2034,0.1996,0.2146,0.2082,0.212,0.215,0.2155,0.2043,0.1952,0.1848,0.1888,0.2143,0.214,0.2137,0.2135,0,0.1541,0.1544,0.1546,0.1548,0.1571,0.1595,0.1621,0.1699,0.1754,0.1879,0.1954,0.2066,0.2143,0.2228,0.2265,0.2229,0.2423,0.238,0.2289,0.2276,0.2127,0.2092,0.2526,0.2526,0.2526,0.2526,0.2525,0,0.1537,0.1542,0.155,0.1551,0.1595,0.1607,0.1681,0.1732,0.1838,0.1938,0.2012,0.212,0.2216,0.2314,0.2336,0.2369,0.2484,0.2336,0.2322,0.2119,0.2084,0.237,0.2351,0.253,0.2529,0.2528,0.2528,0,0.1532,0.1528,0.1545,0.1575,0.1591,0.1627,0.1706,0.1787,0.1863,0.2005,0.2057,0.2201,0.2306,0.2362,0.2497,0.2447,0.2497,0.2482,0.2199,0.2148,0.2265,0.2246,0.2408,0.2404,0.2401,0.2399,0.2396,0,0.1526,0.1527,0.1565,0.1609,0.1625,0.1676,0.1741,0.1802,0.1885,0.2051,0.2138,0.2269,0.2325,0.242,0.237,0.2365,0.2464,0.2166,0.2063,0.2297,0.2267,0.2252,0.2237,0.1863,0.1857,0.1852,0.1848,0,0.1542,0.1554,0.1584,0.1664,0.1728,0.1786,0.1863,0.1907,0.2003,0.2077,0.219,0.2231,0.2272,0.2144,0.2107,0.2082,0.2135,0.2057,0.2446,0.1903,0.1787,0.1755,0.1758,0.1802,0.1806,0.181,0.1812,0.1814,0.1578,0.1617,0.1677,0.1753,0.1825,0.1893,0.1907,0.1967,0.2021,0.2051,0.213,0.2056,0.2011,0.1805,0.1744,0.1691,0.185,0.1763,0.1779,0.1801,0.1693,0.1575,0.1528,0.1531,0.1534,0.1536,0.1538,0,0.1655,0.1707,0.178,0.1858,0.1919,0.1948,0.2003,0.1962,0.1954,0.1921,0.1893,0.1599,0.1468,0.1449,0.127,0.1237,0.1229,0.12,0.1184,0.1229,0.127,0.1135,0.0824,0.0822,0.082,0.0818,0,0,0.1712,0.18,0.1831,0.1931,0.1975,0.2004,0.2002,0.1908,0.182,0.1595,0.1442,0.1426,0.1397,0.1096,0.1036,0.0917,0.1077,0.0867,0.1438,0.1467,0.1506,0.1586,0.1428,0,0,0,0,0]},{"header":{"parameterUnit":"m.s-1","parameterCategory":2,"la1":30.2991,"la2":30.254,"lo1":-89.0895,"lo2":-89.0444,"dy":0.0017,"dx":0.0017,"nx":28,"ny":28,"refTime":"2025-07-23T03:00:00:Z","depth":"2","parameterNumber":3,"parameterNumberName":"V-component_of_CURRENTS"},"data":[0,0,0,0,0,0,0,0,0,0,0,0,0,0,0,0,0,0,0,0,0,0,0,0,0,0,0,0,0,0,0,0,0,0,0,0,0,0,0,0,0,0,0,0,0,0,0,0,0,0,0,0,0,0,0,0,0,0,0.0103,0.0103,0,0.0111,0.0111,0.0111,0.0113,0.0113,0.0113,0.0113,0.0119,0.0119,0.012,0,0,0,0,0,0,0,0,0,0,0,0,0,0.01,0.01,0.0103,0.0103,0.0103,0.0111,0.0111,0.0111,0.0113,0.0113,0.0113,0.0113,0.0119,0.0119,0.012,0,0,0,0,0,0,0,0,0,0,0,0,0,0.0104,0.01,0.0103,0.0105,0.0105,0.0111,0.0111,0.0111,0.0113,0.0113,0.0113,0.0113,0.0119,0.0119,0.012,0.0123,0,0,0.0121,0.0121,0,0,0,0,0,0,0,0,0.0104,0.0104,0.0105,0.0105,0.0105,0.0111,0.0112,0.0115,0.0113,0.0111,0.0113,0.0113,0.0116,0.0117,0.0119,0.0124,0.0124,0.0121,0.0121,0.0121,0.0121,0,0,0,0,0,0,0,0.0104,0.0104,0.0106,0.0105,0.0105,0.0109,0.0109,0.0113,0.0114,0.0111,0.0111,0.0112,0.0116,0.0118,0.0119,0.0124,0.0121,0.0121,0.0121,0.0121,0.0139,0.0139,0,0,0,0,0,0,0.0102,0.0104,0.0106,0.0106,0.0104,0.0109,0.011,0.0109,0.0114,0.0114,0.0112,0.0112,0.0118,0.0118,0.0119,0.0142,0.0121,0.0121,0.0121,0.0139,0.0139,0.0139,0,0,0,0,0,0,0.0102,0.0102,0.0106,0.0105,0.0106,0.0109,0.0109,0.0109,0.0113,0.0114,0.0115,0.0114,0.0118,0.0119,0.0127,0.0142,0.0121,0.0122,0.0138,0.0139,0.0139,0.0177,0,0,0,0,0,0,0.0101,0.0102,0.0102,0.0105,0.0106,0.0112,0.0109,0.011,0.0113,0.0113,0.0117,0.0117,0.0118,0.0126,0.0127,0.0142,0.0122,0.0138,0.0138,0.0139,0.0176,0.0179,0.0182,0,0,0,0,0,0.0101,0.0103,0.0102,0.0102,0.0106,0.0112,0.0113,0.0115,0.0113,0.0117,0.0121,0.0117,0.013,0.0127,0.0128,0.0143,0.0138,0.0138,0.0139,0.0174,0.0178,0.0182,0,0,0,0,0,0,0.0102,0.0104,0.0102,0.0104,0.0108,0.0112,0.0116,0.0116,0.0122,0.0123,0.0122,0.0123,0.0136,0.0131,0.0127,0.0148,0.0133,0.0133,0.0159,0.0163,0.0166,0.0202,0.0122,0,0,0,0,0,0.0102,0.0104,0.0106,0.0108,0.011,0.0113,0.0115,0.0118,0.0122,0.0125,0.0127,0.0131,0.0139,0.0144,0.0146,0.0159,0.0165,0.0168,0.0171,0.0173,0.0203,0.0235,0.0244,0.0141,0.0141,0.0141,0,0,0.0102,0.0104,0.0104,0.0108,0.0111,0.0122,0.0114,0.0121,0.0135,0.0125,0.0142,0.0141,0.0143,0.0159,0.0164,0.0158,0.0196,0.0174,0.0177,0.0205,0.0237,0.0247,0.0256,0.0142,0.0142,0.0142,0,0,0.0107,0.0105,0.0111,0.0117,0.0123,0.0128,0.013,0.0136,0.0143,0.0156,0.0156,0.0172,0.017,0.019,0.0196,0.0218,0.021,0.0204,0.0255,0.0285,0.0295,0.0303,0.0285,0.0292,0.0208,0.0208,0.0209,0,0.0108,0.0118,0.0114,0.0124,0.0136,0.0132,0.0149,0.0155,0.0164,0.0188,0.0164,0.0206,0.0195,0.0246,0.0247,0.023,0.0227,0.0241,0.0292,0.0301,0.0309,0.0289,0.0296,0.021,0.021,0.021,0.021,0,0.0121,0.013,0.0135,0.0149,0.0161,0.0174,0.0184,0.0201,0.0205,0.0222,0.0266,0.0263,0.03,0.0284,0.027,0.0327,0.0296,0.0291,0.0288,0.0322,0.0297,0.0304,0.0213,0.0212,0.0212,0.0211,0,0,0.0123,0.0142,0.0145,0.0167,0.0179,0.0197,0.0223,0.0263,0.0311,0.031,0.0381,0.0377,0.0394,0.0403,0.0393,0.0409,0.0434,0.0375,0.0375,0.0366,0.0469,0.043,0.0433,0.0439,0.0441,0.0443,0.0414,0,0.0138,0.0167,0.0173,0.0214,0.0235,0.0252,0.029,0.0327,0.0354,0.0419,0.0436,0.0491,0.0433,0.0466,0.0474,0.0459,0.0461,0.0441,0.0431,0.0431,0.0401,0.0444,0.0433,0.0408,0.0421,0.0422,0.0423,0,0.0151,0.0175,0.0213,0.0273,0.0286,0.0313,0.0397,0.0431,0.0509,0.054,0.0598,0.0616,0.0658,0.0604,0.0599,0.0588,0.0538,0.0507,0.0505,0.0473,0.0407,0.0383,0.0419,0.0434,0.0433,0.0433,0.0432,0,0.0168,0.0208,0.0247,0.0261,0.032,0.0359,0.04,0.0474,0.0541,0.0636,0.0712,0.0741,0.0791,0.0745,0.0673,0.0645,0.0655,0.0608,0.0521,0.0515,0.051,0.0501,0.0614,0.0614,0.0614,0.0615,0.0615,0,0.0187,0.0221,0.0262,0.0286,0.0366,0.0393,0.0494,0.0546,0.0652,0.0765,0.0789,0.0885,0.0835,0.0833,0.073,0.0651,0.0699,0.0551,0.0527,0.0515,0.0507,0.0542,0.0534,0.0613,0.0614,0.0614,0.0614,0,0.0202,0.0219,0.0279,0.0346,0.0375,0.0438,0.0557,0.0642,0.073,0.0885,0.0934,0.1013,0.1006,0.0926,0.0855,0.0743,0.0657,0.0612,0.0577,0.0549,0.047,0.0464,0.0513,0.0511,0.051,0.051,0.0509,0,0.0213,0.024,0.0323,0.0379,0.0414,0.0504,0.0584,0.0676,0.0773,0.0963,0.1051,0.1111,0.1135,0.1006,0.0849,0.0676,0.0662,0.0546,0.0499,0.0499,0.047,0.0465,0.0461,0.0481,0.048,0.0479,0.0479,0,0.0251,0.0278,0.0331,0.0432,0.0517,0.0617,0.0729,0.0807,0.0942,0.107,0.1206,0.1237,0.1153,0.0993,0.0786,0.0662,0.057,0.0525,0.0582,0.0507,0.0468,0.0438,0.0436,0.0472,0.0473,0.0474,0.0474,0.0474,0.0285,0.0335,0.0404,0.0499,0.0601,0.0714,0.0795,0.0918,0.1059,0.123,0.1247,0.1263,0.1127,0.0828,0.0672,0.0515,0.0529,0.0432,0.0436,0.044,0.0441,0.0402,0.0392,0.0392,0.0392,0.0392,0.0392,0,0.0334,0.0391,0.0475,0.0581,0.0658,0.074,0.0892,0.0954,0.1101,0.122,0.1292,0.1074,0.0932,0.0778,0.0544,0.0396,0.0382,0.0334,0.0356,0.0364,0.037,0.0369,0.0299,0.0299,0.0298,0.0297,0,0,0.0366,0.0429,0.0457,0.0575,0.0679,0.0828,0.0914,0.1021,0.1096,0.1147,0.1148,0.113,0.094,0.0732,0.0568,0.0445,0.0426,0.0401,0.0491,0.0546,0.0553,0.0443,0.0451,0,0,0,0,0]}],[{"header":{"parameterUnit":"m.s-1","parameterCategory":2,"la1":30.2991,"la2":30.254,"lo1":-89.0895,"lo2":-89.0444,"dy":0.0017,"dx":0.0017,"nx":28,"ny":28,"refTime":"2025-07-23T03:00:00:Z","depth":"4","parameterNumber":2,"parameterNumberName":"U-component_of_CURRENTS"},"data":[0,0,0,0,0,0,0,0,0,0,0,0,0,0,0,0,0,0,0,0,0,0,0,0,0,0,0,0,0,0,0,0,0,0,0,0,0,0,0,0,0,0,0,0,0,0,0,0,0,0,0,0,0,0,0,0,0,0,0.0877,0.0877,0,0.0896,0.0896,0.0896,0.0921,0.0922,0.0923,0.0923,0.0965,0.0965,0.0966,0,0,0,0,0,0,0,0,0,0,0,0,0,0.0859,0.086,0.0877,0.0878,0.0878,0.0896,0.0896,0.0896,0.0921,0.0922,0.0923,0.0923,0.0964,0.0965,0.0966,0,0,0,0,0,0,0,0,0,0,0,0,0,0.087,0.086,0.0877,0.0894,0.0896,0.0896,0.0896,0.0896,0.0921,0.0922,0.0923,0.0924,0.0964,0.0965,0.0966,0.0954,0,0,0.0968,0.0969,0,0,0,0,0,0,0,0,0.0869,0.0871,0.0891,0.0893,0.0895,0.0908,0.0905,0.0917,0.0921,0.091,0.0923,0.0924,0.0948,0.095,0.095,0.0956,0.0958,0.0969,0.0969,0.0969,0.097,0,0,0,0,0,0,0,0.0869,0.087,0.0883,0.0891,0.0894,0.0899,0.0901,0.0907,0.0923,0.0911,0.0913,0.0917,0.0949,0.0949,0.0951,0.0959,0.0969,0.0969,0.097,0.097,0.1037,0.1039,0,0,0,0,0,0,0.0869,0.0869,0.0883,0.0884,0.0885,0.0899,0.0901,0.0902,0.0923,0.0927,0.0917,0.0918,0.0947,0.095,0.0953,0.1002,0.0969,0.097,0.0971,0.1036,0.1038,0.1039,0,0,0,0,0,0,0.0868,0.0869,0.0882,0.0878,0.088,0.0898,0.0899,0.0902,0.0924,0.0927,0.0932,0.0938,0.0948,0.0951,0.0978,0.1001,0.0971,0.0971,0.1035,0.1037,0.1038,0.1061,0,0,0,0,0,0,0.0867,0.0869,0.088,0.0878,0.0881,0.0895,0.0898,0.0902,0.0924,0.0927,0.0946,0.095,0.0949,0.0976,0.0978,0.1002,0.0972,0.1033,0.1036,0.1038,0.1058,0.1063,0.1067,0,0,0,0,0,0.0866,0.0873,0.088,0.0882,0.0891,0.0896,0.0898,0.0912,0.0925,0.0935,0.0951,0.095,0.0994,0.0978,0.098,0.1004,0.1032,0.1035,0.1038,0.1056,0.1062,0.1067,0,0,0,0,0,0,0.0872,0.0877,0.0884,0.0893,0.0901,0.0901,0.0915,0.0923,0.0943,0.0955,0.0959,0.0963,0.1,0.0999,0.0981,0.1033,0.1016,0.1019,0.1029,0.1035,0.1039,0.1049,0.0973,0,0,0,0,0,0.0878,0.0886,0.0889,0.09,0.0906,0.0915,0.0924,0.0933,0.0945,0.0956,0.097,0.0989,0.1009,0.1019,0.1036,0.1055,0.1065,0.1076,0.108,0.1084,0.1095,0.1138,0.1147,0.1048,0.1048,0.1048,0,0,0.0883,0.0888,0.0893,0.0903,0.0912,0.0921,0.0923,0.0941,0.0955,0.0957,0.0989,0.1008,0.102,0.1048,0.1064,0.1051,0.1114,0.1088,0.109,0.11,0.1142,0.1151,0.116,0.105,0.105,0.105,0,0,0.0889,0.0903,0.091,0.0919,0.0937,0.0941,0.0951,0.0964,0.0981,0.1007,0.1019,0.1052,0.1075,0.1089,0.1098,0.1137,0.1141,0.1147,0.1171,0.1212,0.122,0.1228,0.1236,0.1244,0.1144,0.1144,0.1144,0,0.0899,0.0905,0.0915,0.0925,0.0934,0.0952,0.0961,0.0977,0.1,0.102,0.1026,0.1089,0.1095,0.1134,0.1148,0.1147,0.1163,0.1145,0.1217,0.1225,0.1232,0.1239,0.1248,0.1145,0.1145,0.1145,0.1145,0,0.0902,0.0917,0.0925,0.0941,0.0953,0.0967,0.0984,0.1011,0.1036,0.1055,0.1113,0.1131,0.1172,0.1178,0.1173,0.123,0.1221,0.1221,0.1201,0.1244,0.1247,0.1256,0.1147,0.1147,0.1146,0.1146,0,0,0.0893,0.0921,0.0926,0.0938,0.0964,0.0971,0.1004,0.1034,0.1071,0.1108,0.1153,0.1193,0.1224,0.1238,0.1247,0.1273,0.1325,0.1271,0.1272,0.1273,0.1402,0.1281,0.1278,0.1343,0.1346,0.1347,0.1377,0,0.0894,0.0913,0.0926,0.095,0.096,0.0989,0.1017,0.1053,0.1095,0.1145,0.1185,0.1237,0.1241,0.1272,0.1305,0.1331,0.1353,0.1316,0.1366,0.1367,0.125,0.1286,0.1354,0.1383,0.1385,0.1387,0.1388,0,0.0888,0.0902,0.0924,0.0958,0.0966,0.099,0.1046,0.1076,0.1149,0.1186,0.1253,0.1289,0.135,0.1341,0.142,0.1401,0.1409,0.1415,0.1417,0.1305,0.1262,0.1338,0.1403,0.1402,0.1401,0.14,0.1399,0,0.0868,0.0898,0.0917,0.0929,0.0971,0.0999,0.1031,0.1099,0.113,0.1226,0.1259,0.1349,0.1397,0.1441,0.146,0.1457,0.1521,0.1517,0.1409,0.1399,0.1489,0.1481,0.1564,0.1564,0.1564,0.1564,0.1564,0,0.0854,0.0871,0.0917,0.093,0.0956,0.1,0.1052,0.1098,0.1172,0.1207,0.129,0.1318,0.143,0.1468,0.1482,0.1466,0.1547,0.142,0.1407,0.1495,0.1487,0.1494,0.1485,0.1565,0.1565,0.1565,0.1564,0,0.0825,0.0858,0.0878,0.0931,0.0949,0.0973,0.104,0.1059,0.1159,0.1205,0.1235,0.1324,0.1379,0.1442,0.151,0.1478,0.1479,0.1444,0.1519,0.1508,0.1324,0.1317,0.1346,0.1342,0.1339,0.1336,0.1334,0,0.081,0.0821,0.0869,0.086,0.0885,0.0932,0.0938,0.1038,0.1054,0.1179,0.1166,0.1264,0.1312,0.1311,0.1388,0.1413,0.1392,0.1388,0.1373,0.1321,0.1307,0.1304,0.1301,0.1328,0.1328,0.1327,0.1326,0,0.0771,0.0797,0.0802,0.0775,0.0778,0.0784,0.0816,0.0841,0.0948,0.1056,0.109,0.1135,0.1182,0.1239,0.1268,0.1276,0.1397,0.1353,0.136,0.1347,0.1301,0.1288,0.1289,0.1314,0.1316,0.1317,0.1318,0,0.0731,0.0707,0.069,0.0649,0.0644,0.0604,0.0667,0.0687,0.074,0.0916,0.0924,0.1032,0.1157,0.1163,0.1178,0.1194,0.1185,0.1158,0.1175,0.1189,0.1125,0.1042,0.097,0,0,0,0,0,0.0679,0.06,0.0548,0.0481,0.0467,0.0462,0.0534,0.0606,0.076,0.0752,0.0852,0.0892,0.0959,0.1005,0.0993,0.1084,0.1166,0.1062,0.1137,0.1251,0.1264,0.1204,0,0,0,0,0,0,0.0624,0.0569,0.0497,0.033,0.0269,0.0232,0.029,0.0402,0.0426,0.0616,0.0653,0.0806,0.0871,0.0941,0.0957,0.0976,0.1001,0.1149,0.1146,0.1244,0.1256,0.1266,0.1209,0,0,0,0,0]},{"header":{"parameterUnit":"m.s-1","parameterCategory":2,"la1":30.2991,"la2":30.254,"lo1":-89.0895,"lo2":-89.0444,"dy":0.0017,"dx":0.0017,"nx":28,"ny":28,"refTime":"2025-07-23T03:00:00:Z","depth":"4","parameterNumber":3,"parameterNumberName":"V-component_of_CURRENTS"},"data":[0,0,0,0,0,0,0,0,0,0,0,0,0,0,0,0,0,0,0,0,0,0,0,0,0,0,0,0,0,0,0,0,0,0,0,0,0,0,0,0,0,0,0,0,0,0,0,0,0,0,0,0,0,0,0,0,0,0,-0.0005,-0.0005,0,-0.0003,-0.0003,-0.0003,-0.0004,-0.0004,-0.0004,-0.0004,-0.0006,-0.0006,-0.0006,0,0,0,0,0,0,0,0,0,0,0,0,0,-0.0004,-0.0004,-0.0005,-0.0005,-0.0005,-0.0003,-0.0003,-0.0003,-0.0004,-0.0004,-0.0004,-0.0004,-0.0006,-0.0006,-0.0006,0,0,0,0,0,0,0,0,0,0,0,0,0,-0.0003,-0.0004,-0.0005,-0.0006,-0.0006,-0.0003,-0.0003,-0.0003,-0.0004,-0.0004,-0.0004,-0.0004,-0.0006,-0.0006,-0.0006,-0.0002,0,0,-0.0005,-0.0005,0,0,0,0,0,0,0,0,-0.0003,-0.0003,-0.0006,-0.0006,-0.0006,-0.0004,-0.0003,-0.0003,-0.0004,-0.0004,-0.0004,-0.0004,-0.0006,-0.0005,-0.0004,-0.0002,-0.0002,-0.0005,-0.0005,-0.0005,-0.0005,0,0,0,0,0,0,0,-0.0003,-0.0003,-0.0004,-0.0006,-0.0006,-0.0004,-0.0004,-0.0003,-0.0004,-0.0004,-0.0004,-0.0005,-0.0006,-0.0004,-0.0004,-0.0002,-0.0005,-0.0005,-0.0005,-0.0005,0.0012,0.0012,0,0,0,0,0,0,-0.0004,-0.0003,-0.0004,-0.0004,-0.0005,-0.0004,-0.0004,-0.0004,-0.0004,-0.0004,-0.0005,-0.0005,-0.0004,-0.0004,-0.0004,0.0009,-0.0005,-0.0005,-0.0005,0.0011,0.0012,0.0012,0,0,0,0,0,0,-0.0004,-0.0004,-0.0004,-0.0004,-0.0004,-0.0004,-0.0004,-0.0004,-0.0003,-0.0004,-0.0004,-0.0003,-0.0004,-0.0004,0.0002,0.0008,-0.0005,-0.0005,0.0011,0.0012,0.0012,0.0029,0,0,0,0,0,0,-0.0004,-0.0004,-0.0005,-0.0004,-0.0004,-0.0001,-0.0004,-0.0004,-0.0003,-0.0003,-0.0003,-0.0003,-0.0005,0.0002,0.0002,0.0008,-0.0005,0.001,0.0011,0.0012,0.0028,0.0031,0.0032,0,0,0,0,0,-0.0004,-0.0005,-0.0005,-0.0005,-0.0004,-0.0001,-0.0,-0.0001,-0.0003,-0.0,0.0002,-0.0003,0.0007,0.0002,0.0002,0.0009,0.001,0.0011,0.0012,0.0027,0.003,0.0032,0,0,0,0,0,0,-0.0006,-0.0005,-0.0005,-0.0005,-0.0002,-0.0001,-0.0,0.0,0.0004,0.0004,0.0002,0.0003,0.001,0.0008,0.0003,0.0016,0.0007,0.0008,0.0019,0.0022,0.0024,0.0016,-0.0005,0,0,0,0,0,-0.0006,-0.0005,-0.0003,-0.0003,-0.0002,-0.0,0.0001,0.0002,0.0005,0.0006,0.0007,0.001,0.0014,0.0016,0.0019,0.0026,0.001,0.003,0.0032,0.0034,0.0028,0.0009,0.0008,0.0015,0.0015,0.0015,0,0,-0.0008,-0.0006,-0.0006,-0.0003,-0.0002,0.0005,-0.0,0.0003,0.001,0.0005,0.0015,0.0016,0.0018,0.0027,0.003,0.0026,0.0025,0.0035,0.0037,0.0029,0.001,0.0009,0.0008,0.0016,0.0016,0.0016,0,0,-0.0008,-0.0008,-0.0006,-0.0001,0.0004,0.0007,0.0009,0.0013,0.0016,0.0026,0.0025,0.0027,0.0038,0.0037,0.0039,0.0052,0.0036,0.0058,0.0062,0.0044,0.0043,0.0042,0.0026,0.0023,0.006,0.006,0.006,0,-0.0011,-0.0006,-0.0004,0.0002,0.0007,0.001,0.0016,0.0022,0.0028,0.0031,0.0032,0.0041,0.004,0.0047,0.0053,0.0055,0.0044,0.0054,0.0046,0.0044,0.0043,0.0027,0.0023,0.0061,0.006,0.006,0.006,0,-0.0006,-0.0002,0.0001,0.0011,0.0017,0.0023,0.0032,0.0039,0.0044,0.0048,0.0056,0.0056,0.0061,0.0063,0.0063,0.0058,0.0053,0.005,0.0038,0.0043,0.0026,0.0022,0.0062,0.0062,0.0061,0.0061,0,0,-0.0016,0.0,0.0001,0.0008,0.0023,0.0028,0.0042,0.0052,0.0064,0.0066,0.0073,0.0077,0.0075,0.0077,0.0076,0.0059,0.0041,0.0052,0.0051,0.0033,0.0002,0.0023,0.0021,0.0037,0.0037,0.0036,-0.0004,0,-0.0014,-0.0002,0.0008,0.0022,0.0028,0.004,0.0056,0.0067,0.0079,0.0088,0.008,0.0091,0.0083,0.009,0.0072,0.0055,0.0031,0.0052,0.0003,0.0001,0.0016,0.0017,0.0034,-0.0007,-0.0008,-0.0008,-0.0009,0,-0.0013,-0.0005,0.0007,0.0028,0.0033,0.0046,0.007,0.0087,0.0101,0.0111,0.0114,0.0113,0.0101,0.0089,0.0049,0.0066,0.0031,0.0008,0.0006,0.0014,0.0015,-0.0014,-0.0016,-0.0015,-0.0015,-0.0014,-0.0014,0,-0.0023,-0.0005,0.0004,0.001,0.0036,0.0047,0.0065,0.009,0.0115,0.0126,0.0142,0.0127,0.013,0.0083,0.005,0.0047,-0.0002,-0.0012,-0.0034,-0.0032,-0.0048,-0.0047,-0.0064,-0.0064,-0.0064,-0.0064,-0.0064,0,-0.0025,-0.0019,0.0,0.0007,0.0026,0.0046,0.0079,0.0096,0.0132,0.0173,0.0154,0.0178,0.0128,0.0103,0.0053,0.0011,0.0001,-0.0037,-0.0042,-0.0038,-0.0035,-0.0051,-0.0049,-0.0065,-0.0065,-0.0065,-0.0064,0,-0.0039,-0.0026,-0.0015,0.001,0.0023,0.0036,0.0095,0.0133,0.0155,0.0207,0.0214,0.0215,0.0191,0.0135,0.0068,0.0029,-0.0026,-0.0047,-0.0032,-0.0035,-0.005,-0.0046,-0.0079,-0.0078,-0.0078,-0.0078,-0.0077,0,-0.0046,-0.0042,-0.0016,0.0007,0.0021,0.0054,0.0098,0.014,0.0192,0.0241,0.0271,0.0256,0.025,0.0173,0.0103,0.0005,-0.0014,-0.005,-0.0063,-0.0049,-0.0052,-0.0049,-0.0046,-0.0077,-0.0077,-0.0077,-0.0077,0,-0.0058,-0.0049,-0.0032,0.0021,0.0064,0.012,0.0182,0.0213,0.0282,0.0285,0.0334,0.03,0.027,0.0197,0.0124,0.005,-0.0027,-0.0047,-0.0049,-0.0061,-0.0048,-0.005,-0.0047,-0.0075,-0.0076,-0.0076,-0.0076,0,-0.0062,-0.0048,-0.0003,0.0048,0.0117,0.0207,0.0212,0.0286,0.0333,0.0375,0.0388,0.0348,0.0321,0.0221,0.0156,0.0088,0.0059,0.0025,0.0018,0.0016,0.0056,0.0088,0.0095,0,0,0,0,0,-0.0054,-0.001,0.0035,0.0115,0.0192,0.024,0.0305,0.0313,0.0348,0.0393,0.0398,0.0373,0.0292,0.0247,0.0184,0.0146,0.0038,0.0066,-0.0007,-0.0069,-0.0071,-0.0038,0,0,0,0,0,0,-0.0039,0.0003,0.0046,0.0192,0.0254,0.0356,0.0397,0.0402,0.0422,0.0424,0.0378,0.0353,0.0263,0.0335,0.0184,0.0162,0.0105,0.0021,0.002,-0.0069,-0.007,-0.0071,-0.0038,0,0,0,0,0]}]]